timestamp,wind_dir_avg,wind_spd_max_dir,wind_spd_avg,wind_spd_gust,battery_voltage,lat,long
2017-12-07 00:00:00+00:00,164.0,167.0,3.43,3.73,,47.59359,-54.27349
2017-12-07 00:10:00+00:00,167.0,171.0,3.42,3.78,,47.59359,-54.27349
2017-12-07 00:20:00+00:00,175.0,174.0,2.91,3.37,,47.59359,-54.27349
2017-12-07 00:30:00+00:00,178.0,174.0,3.08,3.77,,47.59359,-54.27349
2017-12-07 00:40:00+00:00,184.0,179.0,3.12,3.68,,47.59359,-54.27349
2017-12-07 00:50:00+00:00,180.0,179.0,3.93,4.43,,47.59359,-54.27349
2017-12-07 01:00:00+00:00,178.0,180.0,3.2,3.8,,47.59359,-54.27349
2017-12-07 01:10:00+00:00,194.0,193.0,2.81,3.17,,47.59359,-54.27349
2017-12-07 01:20:00+00:00,214.0,222.0,2.92,3.39,,47.59359,-54.27349
2017-12-07 01:30:00+00:00,219.0,220.0,3.39,3.67,,47.59359,-54.27349
2017-12-07 01:40:00+00:00,193.0,185.0,4.15,5.27,,47.59359,-54.27349
2017-12-07 01:50:00+00:00,199.0,205.0,4.12,4.59,,47.59359,-54.27349
2017-12-07 02:00:00+00:00,197.0,197.0,4.31,4.81,,47.59359,-54.27349
2017-12-07 02:10:00+00:00,194.0,192.0,4.05,4.65,,47.59359,-54.27349
2017-12-07 02:20:00+00:00,194.0,198.0,3.35,3.77,,47.59359,-54.27349
2017-12-07 02:30:00+00:00,192.0,193.0,3.0,3.77,,47.59359,-54.27349
2017-12-07 02:40:00+00:00,173.0,165.0,2.6,2.99,,47.59359,-54.27349
2017-12-07 02:50:00+00:00,185.0,189.0,2.32,2.83,,47.59359,-54.27349
2017-12-07 03:00:00+00:00,174.0,184.0,2.61,2.94,,47.59359,-54.27349
2017-12-07 03:10:00+00:00,183.0,186.0,2.29,2.97,,47.59359,-54.27349
2017-12-07 03:20:00+00:00,178.0,187.0,2.86,3.24,,47.59359,-54.27349
2017-12-07 03:30:00+00:00,165.0,161.0,2.61,3.23,,47.59359,-54.27349
2017-12-07 03:40:00+00:00,166.0,169.0,3.27,3.79,,47.59359,-54.27349
2017-12-07 03:50:00+00:00,155.0,153.0,3.75,4.27,,47.59359,-54.27349
2017-12-07 04:00:00+00:00,164.0,162.0,4.0,4.49,,47.59359,-54.27349
2017-12-07 04:10:00+00:00,147.0,145.0,3.69,4.14,,47.59359,-54.27349
2017-12-07 04:20:00+00:00,147.0,145.0,4.04,4.54,,47.59359,-54.27349
2017-12-07 04:30:00+00:00,151.0,152.0,4.07,4.75,,47.59359,-54.27349
2017-12-07 04:40:00+00:00,147.0,140.0,4.1,4.62,,47.59359,-54.27349
2017-12-07 04:50:00+00:00,147.0,150.0,4.07,4.59,,47.59359,-54.27349
2017-12-07 05:00:00+00:00,150.0,153.0,4.64,5.51,,47.59359,-54.27349
2017-12-07 05:10:00+00:00,140.0,137.0,4.57,5.61,,47.59359,-54.27349
2017-12-07 05:20:00+00:00,128.0,136.0,4.21,5.63,,47.59359,-54.27349
2017-12-07 05:30:00+00:00,148.0,142.0,5.15,6.15,,47.59359,-54.27349
2017-12-07 05:40:00+00:00,137.0,137.0,5.16,5.99,,47.59359,-54.27349
2017-12-07 05:50:00+00:00,140.0,143.0,5.9,7.09,,47.59359,-54.27349
2017-12-07 06:00:00+00:00,150.0,145.0,5.38,6.08,,47.59359,-54.27349
2017-12-07 06:10:00+00:00,166.0,149.0,3.88,4.84,,47.59359,-54.27349
2017-12-07 06:20:00+00:00,149.0,154.0,5.95,6.88,,47.59359,-54.27349
2017-12-07 06:30:00+00:00,194.0,190.0,5.64,6.99,,47.59359,-54.27349
2017-12-07 06:40:00+00:00,190.0,191.0,5.63,6.31,,47.59359,-54.27349
2017-12-07 06:50:00+00:00,197.0,187.0,7.28,8.33,,47.59359,-54.27349
2017-12-07 07:00:00+00:00,191.0,193.0,6.93,8.31,,47.59359,-54.27349
2017-12-07 07:10:00+00:00,193.0,198.0,6.28,7.04,,47.59359,-54.27349
2017-12-07 07:20:00+00:00,199.0,198.0,6.43,7.05,,47.59359,-54.27349
2017-12-07 07:30:00+00:00,201.0,209.0,3.41,4.24,,47.59359,-54.27349
2017-12-07 07:40:00+00:00,229.0,230.0,4.04,4.69,,47.59359,-54.27349
2017-12-07 07:50:00+00:00,229.0,229.0,4.98,5.73,,47.59359,-54.27349
2017-12-07 08:00:00+00:00,223.0,231.0,3.26,3.76,,47.59359,-54.27349
2017-12-07 08:10:00+00:00,201.0,199.0,4.72,5.45,,47.59359,-54.27349
2017-12-07 08:20:00+00:00,189.0,191.0,4.25,4.72,,47.59359,-54.27349
2017-12-07 08:30:00+00:00,190.0,188.0,4.22,4.9,,47.59359,-54.27349
2017-12-07 08:40:00+00:00,197.0,200.0,4.84,5.75,,47.59359,-54.27349
2017-12-07 08:50:00+00:00,181.0,171.0,3.81,4.68,,47.59359,-54.27349
2017-12-07 09:00:00+00:00,178.0,176.0,4.26,4.68,,47.59359,-54.27349
2017-12-07 09:10:00+00:00,199.0,199.0,3.9,4.28,,47.59359,-54.27349
2017-12-07 09:20:00+00:00,209.0,206.0,4.21,4.62,,47.59359,-54.27349
2017-12-07 09:30:00+00:00,185.0,179.0,3.51,4.27,,47.59359,-54.27349
2017-12-07 09:40:00+00:00,177.0,183.0,3.94,4.41,,47.59359,-54.27349
2017-12-07 09:50:00+00:00,207.0,216.0,6.38,7.28,,47.59359,-54.27349
2017-12-07 10:00:00+00:00,206.0,205.0,8.0,9.17,,47.59359,-54.27349
2017-12-07 10:10:00+00:00,199.0,199.0,7.58,8.93,,47.59359,-54.27349
2017-12-07 10:20:00+00:00,210.0,209.0,7.64,8.84,,47.59359,-54.27349
2017-12-07 10:30:00+00:00,208.0,198.0,8.25,9.68,,47.59359,-54.27349
2017-12-07 10:40:00+00:00,202.0,210.0,9.15,10.17,,47.59359,-54.27349
2017-12-07 10:50:00+00:00,194.0,196.0,9.12,10.3,,47.59359,-54.27349
2017-12-07 11:00:00+00:00,196.0,197.0,8.78,9.88,,47.59359,-54.27349
2017-12-07 11:10:00+00:00,200.0,201.0,10.42,11.57,,47.59359,-54.27349
2017-12-07 11:20:00+00:00,201.0,204.0,9.55,10.54,,47.59359,-54.27349
2017-12-07 11:30:00+00:00,198.0,205.0,9.42,11.04,,47.59359,-54.27349
2017-12-07 11:40:00+00:00,197.0,197.0,9.93,10.84,,47.59359,-54.27349
2017-12-07 11:50:00+00:00,191.0,186.0,7.77,9.12,,47.59359,-54.27349
2017-12-07 12:00:00+00:00,197.0,199.0,6.88,7.96,,47.59359,-54.27349
2017-12-07 12:10:00+00:00,194.0,194.0,6.92,7.72,,47.59359,-54.27349
2017-12-07 12:20:00+00:00,196.0,197.0,7.28,8.23,,47.59359,-54.27349
2017-12-07 12:30:00+00:00,193.0,187.0,7.62,8.22,,47.59359,-54.27349
2017-12-07 12:40:00+00:00,198.0,189.0,6.6,7.66,,47.59359,-54.27349
2017-12-07 12:50:00+00:00,197.0,201.0,6.35,7.12,,47.59359,-54.27349
2017-12-07 13:00:00+00:00,206.0,203.0,8.19,9.85,,47.59359,-54.27349
2017-12-07 13:10:00+00:00,201.0,203.0,8.2,9.71,,47.59359,-54.27349
2017-12-07 13:20:00+00:00,213.0,217.0,6.68,7.42,,47.59359,-54.27349
2017-12-07 13:30:00+00:00,205.0,205.0,7.8,9.13,,47.59359,-54.27349
2017-12-07 13:40:00+00:00,206.0,214.0,8.61,9.64,,47.59359,-54.27349
2017-12-07 13:50:00+00:00,209.0,208.0,6.26,7.02,,47.59359,-54.27349
2017-12-07 14:00:00+00:00,208.0,210.0,6.39,7.08,,47.59359,-54.27349
2017-12-07 14:10:00+00:00,206.0,218.0,5.98,6.88,,47.59359,-54.27349
2017-12-07 14:20:00+00:00,202.0,207.0,5.58,6.19,,47.59359,-54.27349
2017-12-07 14:30:00+00:00,198.0,193.0,6.29,7.1,,47.59359,-54.27349
2017-12-07 14:40:00+00:00,203.0,210.0,6.16,7.09,,47.59359,-54.27349
2017-12-07 14:50:00+00:00,197.0,200.0,5.98,6.55,,47.59359,-54.27349
2017-12-07 15:00:00+00:00,205.0,186.0,5.72,7.15,,47.59359,-54.27349
2017-12-07 15:10:00+00:00,204.0,201.0,7.52,7.75,,47.59359,-54.27349
2017-12-07 15:20:00+00:00,213.0,215.0,8.32,9.61,,47.59359,-54.27349
2017-12-07 15:30:00+00:00,209.0,217.0,6.92,7.77,,47.59359,-54.27349
2017-12-07 15:40:00+00:00,206.0,199.0,7.89,9.72,,47.59359,-54.27349
2017-12-07 15:50:00+00:00,201.0,205.0,6.5,7.5,,47.59359,-54.27349
2017-12-07 16:00:00+00:00,200.0,199.0,6.29,7.08,,47.59359,-54.27349
2017-12-07 16:10:00+00:00,202.0,199.0,7.49,8.68,,47.59359,-54.27349
2017-12-07 16:20:00+00:00,198.0,198.0,6.81,7.58,,47.59359,-54.27349
2017-12-07 16:30:00+00:00,208.0,210.0,6.95,7.63,,47.59359,-54.27349
2017-12-07 16:40:00+00:00,217.0,217.0,6.76,7.59,,47.59359,-54.27349
2017-12-07 16:50:00+00:00,226.0,222.0,6.77,7.79,,47.59359,-54.27349
2017-12-07 17:00:00+00:00,230.0,228.0,7.39,8.27,,47.59359,-54.27349
2017-12-07 17:10:00+00:00,226.0,225.0,8.03,9.33,,47.59359,-54.27349
2017-12-07 17:20:00+00:00,227.0,230.0,8.02,9.14,,47.59359,-54.27349
2017-12-07 17:30:00+00:00,229.0,230.0,7.74,8.75,,47.59359,-54.27349
2017-12-07 17:40:00+00:00,228.0,227.0,8.11,9.7,,47.59359,-54.27349
2017-12-07 17:50:00+00:00,230.0,230.0,7.79,8.92,,47.59359,-54.27349
2017-12-07 18:00:00+00:00,226.0,228.0,7.59,8.84,,47.59359,-54.27349
2017-12-07 18:10:00+00:00,232.0,233.0,7.63,8.5,,47.59359,-54.27349
2017-12-07 18:20:00+00:00,228.0,230.0,8.37,9.5,,47.59359,-54.27349
2017-12-07 18:30:00+00:00,229.0,231.0,8.7,10.06,,47.59359,-54.27349
2017-12-07 18:40:00+00:00,225.0,227.0,9.13,9.92,,47.59359,-54.27349
2017-12-07 18:50:00+00:00,223.0,228.0,8.93,9.72,,47.59359,-54.27349
2017-12-07 19:00:00+00:00,230.0,224.0,9.8,12.69,,47.59359,-54.27349
2017-12-07 19:10:00+00:00,228.0,223.0,10.36,12.18,,47.59359,-54.27349
2017-12-07 19:20:00+00:00,233.0,238.0,8.55,10.0,,47.59359,-54.27349
2017-12-07 19:30:00+00:00,232.0,231.0,8.66,10.55,,47.59359,-54.27349
2017-12-07 19:40:00+00:00,229.0,224.0,7.92,9.1,,47.59359,-54.27349
2017-12-07 19:50:00+00:00,227.0,226.0,8.15,9.17,,47.59359,-54.27349
2017-12-07 20:00:00+00:00,232.0,232.0,7.39,8.52,,47.59359,-54.27349
2017-12-07 20:10:00+00:00,230.0,223.0,7.85,8.71,,47.59359,-54.27349
2017-12-07 20:20:00+00:00,230.0,226.0,8.16,9.13,,47.59359,-54.27349
2017-12-07 20:30:00+00:00,233.0,233.0,6.49,7.41,,47.59359,-54.27349
2017-12-07 20:40:00+00:00,231.0,233.0,6.73,7.79,,47.59359,-54.27349
2017-12-07 20:50:00+00:00,233.0,229.0,5.77,6.46,,47.59359,-54.27349
2017-12-07 21:00:00+00:00,241.0,237.0,4.61,5.47,,47.59359,-54.27349
2017-12-07 21:10:00+00:00,247.0,249.0,4.41,5.1,,47.59359,-54.27349
2017-12-07 21:20:00+00:00,246.0,254.0,3.93,4.54,,47.59359,-54.27349
2017-12-07 21:30:00+00:00,242.0,248.0,4.08,4.61,,47.59359,-54.27349
2017-12-07 21:40:00+00:00,238.0,235.0,4.35,4.79,,47.59359,-54.27349
2017-12-07 21:50:00+00:00,258.0,259.0,4.75,5.42,,47.59359,-54.27349
2017-12-07 22:00:00+00:00,270.0,273.0,5.72,6.17,,47.59359,-54.27349
2017-12-07 22:10:00+00:00,283.0,286.0,6.67,7.32,,47.59359,-54.27349
2017-12-07 22:20:00+00:00,284.0,287.0,6.74,7.91,,47.59359,-54.27349
2017-12-07 22:30:00+00:00,291.0,293.0,6.93,7.61,,47.59359,-54.27349
2017-12-07 22:40:00+00:00,297.0,301.0,6.26,6.76,,47.59359,-54.27349
2017-12-07 22:50:00+00:00,287.0,292.0,6.56,7.16,,47.59359,-54.27349
2017-12-07 23:00:00+00:00,281.0,283.0,6.12,6.68,,47.59359,-54.27349
2017-12-07 23:10:00+00:00,293.0,286.0,6.81,7.78,,47.59359,-54.27349
2017-12-07 23:20:00+00:00,337.0,329.0,10.71,11.93,,47.59359,-54.27349
2017-12-07 23:30:00+00:00,335.0,338.0,10.04,10.93,,47.59359,-54.27349
2017-12-07 23:40:00+00:00,334.0,339.0,8.31,9.01,,47.59359,-54.27349
2017-12-07 23:50:00+00:00,335.0,329.0,7.96,9.39,,47.59359,-54.27349
